{"data":{"norad_id":53728,"intl_designator":"2022-107AE","name":"STARLINK-4640","alt_names":[],"object_type":"PAYLOAD","status":"ACTIVE","operator":null,"country":"US","launch_date":"2022-09-05","launch_site_code":"AFETR","launch_vehicle":null,"mission":null,"orbit_class":"UNKNOWN","rcs_meters":null,"size_class":null,"mass_kg":null,"dimensions":null,"purposes":["comms"],"wikipedia_slug":null,"has_3d_model":false,"image_url":null,"decayed_at":null,"tle_current":{"epoch":"2026-05-24T17:30:11.917440Z","epoch_age_seconds":98402,"freshness":"FRESH","line1":"1 53728U 22107AE  26144.72930460  .00001524  00000+0  11382-3 0  9994","line2":"2 53728  53.2136 272.7166 0001496  95.9722 264.1441 15.08831468206039","mean_motion":15.08831468,"eccentricity":0.0001496,"inclination_deg":53.2136,"raan_deg":272.7166,"arg_perigee_deg":95.9722,"mean_anomaly_deg":264.1441,"bstar":0.00011382,"rev_number":20603,"period_min":95.438094349183,"perigee_km":538.7345491901,"apogee_km":540.80438680533,"semimajor_km":6917.9064679977,"source":"CELESTRAK","updated_at":"2026-05-25T13:38:17.536618Z"}}}